Regional Weather Roundup
Issued by NWS

Home | Current Version | Previous Version | Graphics & Text | Print | Product List | Glossary Off
Versions: 1 2 3 4 5 6 7 8 9 10 11 12 13 14 15 16 17 18 19 20 21 22 23 24 25 26 27 28 29 30 31 32 33 34 35 36 37 38 39 40 41 42 43 44 45 46 47 48 49 50

000
ASUS43 KTOP 051908
RWRKS

WEATHER ROUNDUP FOR KANSAS
NATIONAL WEATHER SERVICE GOODLAND KS
200 PM CDT SUN JUL 05 2015

NOTE:  "FAIR" INDICATES FEW OR NO CLOUDS BELOW 12,000 FEET WITH NO
SIGNIFICANT WEATHER AND/OR OBSTRUCTIONS TO VISIBILITY.

KSZ001>006-013>018-027>032-041>047-052000-
NORTHWEST KANSAS

CITY           SKY/WX    TMP DP  RH WIND       PRES   REMARKS
GOODLAND       SUNNY     97  53  22 S21G30    29.85F
HAYS           SUNNY    100  63  28 S28       29.83F HX 102
HILL CITY      SUNNY    102  62  26 S21G29    29.79F HX 104
RUSSELL        LGT RAIN  97  66  36 S29G36    29.83F HX 100
$$

KSZ061>065-074>080-084>089-052000-
SOUTHWEST KANSAS

CITY           SKY/WX    TMP DP  RH WIND       PRES   REMARKS
DODGE CITY     SUNNY     94  59  31 S26G36    29.89F
ELKHART          N/A     95  58  29 S21         N/A
GARDEN CITY    SUNNY     93  65  39 S22G31    29.88F HX  95
GREAT BEND     SUNNY     93  63  36 S21G32    29.86F
LIBERAL        SUNNY     93  64  38 S20G29    29.94F HX  95
PRATT          SUNNY     95  55  26 SW21G26   29.90F
$$

KSZ066>073-081>083-090>101-052000-
SOUTHEAST KANSAS

CITY           SKY/WX    TMP DP  RH WIND       PRES   REMARKS
CHANUTE        PTSUNNY   90  74  59 S9        29.95F HX  99
COFFEYVILLE    PTSUNNY   90  75  61 S13       29.95F HX 100
HUTCHINSON     SUNNY     95  64  35 S20G30    29.88F HX  97
MEDICINE LODGE   N/A     98  61  29 S18G29    29.88F HX  98
NEWTON         SUNNY     93  68  43 S20       29.93F HX  97
PARSONS        PTSUNNY   89  76  65 S8        29.96F HX 100
WICHITA INTL   MOSUNNY   97  65  34 S17G30    29.89F HX  99
WICHITA JABRA  SUNNY     93  69  45 S13G24    29.91F HX  98
WICHITA MCCONL MOSUNNY   94  69  44 SE17G23   29.91F HX  99
WINFIELD       SUNNY     94  73  50 S13       29.92F HX 103
$$

KSZ007>012-019>026-033>040-048>060-102>105-052000-
NORTHEAST KANSAS

CITY           SKY/WX    TMP DP  RH WIND       PRES   REMARKS
CONCORDIA      SUNNY     95  69  42 S23G31    29.84F HX 100
EMPORIA        MOSUNNY   85  72  65 SE16      29.93F
LAWRENCE       MOSUNNY   89  73  59 S10       29.93F HX  97
MANHATTAN      SUNNY     93  72  50 S16G25    29.87F HX 101
MARYSVILLE     MOSUNNY   88  73  62 S17       29.88F HX  96
OLATHE IND     PTSUNNY   87  73  62 S13       29.96F
OLATHE EXE     PTSUNNY   84  73  69 S13       29.95F
SALINA         SUNNY     99  67  35 S22G30    29.85F HX 103
TOPEKA BILLARD PTSUNNY   84  73  69 SE8       29.91F
TOPEKA FORBES  PTSUNNY   85  68  56 SE8       29.92F
$$


USA.gov is the U.S. government's official web portal to all federal, state and local government web resources and services.